Flag for Russia Weather past 2 weeks in Kemerovo, Russia

Now
39 °F

Sunny.


Feels Like: 32 °F
Forecast: 22 / 37 °F
Wind: 13 mph from Northeast

Location: Kemerovo

Current Time: Apr 1, 2015 at 3:40:04 PM

Latest Report: Apr 1, 2015 at 3:00 PM


Visibility: 10 mi

Pressure: 30.09 "Hg

Humidity: 45%

Dew point: 19 °F

Location of KemerovoLocation

Historic Weather in Kemerovo — Graph

°F

Kemerovo temperature yesterday

Maximum temperature yesterday: 36 °F (at 4:00 PM)
Minimum temperature yesterday: 18 °F (at 5:00 AM)
Average temperature yesterday: 26 °F

Past Weeks' High & Low Weather Summary

 TemperatureHumidityPressure
High41 °F (Mar 23, 10:00 AM)100% (Mar 17, 7:00 PM)30.36 "Hg (Mar 17, 7:00 PM)
Low7 °F (Mar 29, 7:00 AM)32% (Mar 30, 5:00 PM)29.27 "Hg (Mar 24, 11:30 PM)
Average26 °F79%30.05 "Hg
* Reported Mar 17 2:00 PM — Apr 1 2:30 PM, Kemerovo, Weather by CustomWeather, © 2015

Note: Actual official high and low records may vary slightly from our data, if they occured in-between our weather recording intervals... More about our weather records

Advertising

Kemerovo weather history for previous 24 hours

 ConditionsComfort  
Time TempWeatherWind HumidityBarometerVisibility
2:30 PM
Wed, Apr 1
37 °FSunny.13 mph45%30.09 "Hg10 mi
2:00 PM37 °FSunny.13 mph45%30.09 "Hg10 mi
1:30 PM36 °FSunny.13 mph48%30.09 "Hg10 mi
1:00 PM36 °FSunny.15 mph48%30.09 "Hg10 mi
12:30 PM34 °FSunny.10 mph51%30.12 "Hg10 mi
12:00 PM34 °FSunny.8 mph51%30.12 "Hg10 mi
11:30 AM30 °FSunny.8 mph51%30.15 "Hg10 mi
11:00 AM30 °FSunny.10 mph51%30.15 "Hg10 mi
10:30 AM28 °FSunny.10 mph55%30.15 "Hg10 mi
9:30 AM23 °FSunny.8 mph63%30.15 "Hg10 mi
9:00 AM23 °FSunny.8 mph63%30.15 "Hg10 mi
8:30 AM23 °FSunny.8 mph63%30.15 "Hg10 mi
8:00 AM23 °FSunny.8 mph63%30.15 "Hg10 mi
7:30 AM21 °FClear.8 mph68%30.15 "Hg10 mi
7:00 AM21 °FClear.8 mph68%30.15 "Hg10 mi
6:30 AM19 °FClear.8 mph68%30.18 "Hg10 mi
6:00 AM19 °FClear.10 mph68%30.18 "Hg10 mi
5:30 AM21 °FClear.1 mph68%30.18 "Hg10 mi
5:00 AM21 °FClear.8 mph68%30.21 "Hg10 mi
4:30 AM21 °FClear.8 mph68%30.21 "Hg10 mi
4:00 AM21 °FClear.8 mph68%30.21 "Hg10 mi
3:30 AM25 °FClear.6 mph54%30.21 "Hg10 mi
3:00 AM25 °FClear.8 mph54%30.24 "Hg10 mi
2:30 AM27 °FClear.6 mph50%30.24 "Hg10 mi
2:00 AM27 °FClear.3 mph50%30.24 "Hg10 mi
1:30 AM27 °FClear.6 mph46%30.24 "Hg10 mi
1:00 AM27 °FClear.3 mph46%30.24 "Hg10 mi
12:00 AM28 °FOvercast.3 mph47%30.27 "Hg4 mi
11:30 PM
Tue, Mar 31
30 °FOvercast.3 mph47%30.27 "Hg4 mi
11:00 PM30 °FOvercast.3 mph47%30.27 "Hg4 mi
10:30 PM30 °FOvercast.1 mph40%30.30 "Hg4 mi
10:00 PM30 °FOvercast.1 mph40%30.30 "Hg4 mi
9:30 PM30 °FOvercast.3 mph40%30.30 "Hg4 mi
9:00 PM30 °FClear.6 mph40%30.30 "Hg10 mi
8:30 PM32 °FSunny.6 mph37%30.30 "Hg10 mi
8:00 PM32 °FSunny.3 mph37%30.30 "Hg10 mi
7:30 PM34 °FSunny.3 mph38%30.30 "Hg10 mi
7:00 PM34 °FSunny.3 mph38%30.30 "Hg10 mi
6:30 PM32 °FSunny.6 mph40%30.30 "Hg10 mi
6:00 PM32 °FSunny.6 mph40%30.30 "Hg10 mi
5:30 PM34 °FSunny.6 mph38%30.27 "Hg10 mi
5:00 PM34 °FSunny.6 mph38%30.27 "Hg10 mi
4:30 PM34 °FSunny.6 mph38%30.27 "Hg10 mi
4:00 PM36 °FSunny.6 mph35%30.27 "Hg10 mi
3:30 PM34 °FSunny.6 mph38%30.27 "Hg10 mi
3:00 PM34 °FSunny.6 mph38%30.27 "Hg10 mi
Weather by CustomWeather, © 2015

See weather overviewHow to use our weather pages